COSMOS 2491 DEB, 45127

Orbit data source: Space-Track

COSMOS 2491 DEB, 45127 is space debris in LEO originally from a launch on Wed, 25 Dec 2013 UTC launched from the Plesetsk Missile And Space Complex (PKMTR). Debris objects in space refer to the collection of defunct objects orbiting the Earth. Examples of debris include non-operational satellites, rocket bodies, and fragments generated from explosions, collisions, or faulty payload assembly.

Loading next visibility...
Identifier
45127, 2013-076Z
Orbit
LEO
Country
Flag of CISCIS
Related business
Manufacturer
TsNIIKhM
Mission
Spacecraft
Bus & Motor
Unknown
Mass
Unknown
Launch date (UTC)
2013-12-25 (12 years ago)
Launch vehicle
Unknown
Launch site
Plesetsk Missile And Space Complex (PKMTR)
Object type
Payload
Rocket body
Debris
Shape & HBR
Unknown shape, 0.1 m
Radar Cross Section
Small (<0.1 m²)

Expand to show TLE details & history
Last TLE update: 7 hours ago

TLE from 7 hours ago
0 COSMOS 2491 DEB
1 45127U 13076Z   25312.11277970  .00002166  00000-0  11823-1 0  9994
2 45127  82.4473 266.5554 0122958 354.2420   5.7249 12.61589038265361
Epoch: 2025-11-08T02:42Z
TLE epoch observation values (Epoch: 2025-11-08T02:42:24.166Z)
Latitude
-0.00001°
Longitude
178.40765°
Altitude
1,323.752 km
Speed
7.239 km/s
True Right ascension
17h 46m 13s
True Declination
0° 00' 00"
Sunlit
Object was in daylight at epoch
Visualization orbit readout
Latitude
Unknown
Longitude
Unknown
Altitude
Unknown
Speed
Unknown
Apparent Right ascension
Unknown
Apparent Declination
Unknown
Sunlit
N/A
Visualization observer readout
Local Sidereal Time
06:06:36
Azimuth
Unknown
Elevation
Unknown
Doppler factor
Unknown
Orbital elements
Apogee altitude
1,509.526 km
Perigee altitude
1,317.912 km
Semi-major axis
7,791.856 km
Eccentricity
0.0123
Inclination
82.4473°
RAAN
266.5554°
Arg. of periapsis
354.242°
True anomaly
5.86763°
Mean anomaly
5.7249°
Eccentric anomaly
5.79605°
Mean motion
3.1556 °/min
Orbital period
114.08 mins
BSTAR
0.011823
Loading maneuver chart data...
Computing Atmospheric mass density...
Loading historical data...
Loading historical data...
Loading historical data...
Loading historical data...
Loading historical data...
Loading historical data...
Loading historical data...

Documentation

Showing up to 5 results
|